Location: Casteau
(50.5142°N, 4.0161°E)
Time: 04:59:50
(UTC+00:00)

Cosmos 1674 - Pass Details

Date: 18 September 2020
Orbit: 494 x 518 km, 82.5° (Epoch: 29 October)

Event Time Altitude Azimuth Distance (km) Brightness Sun altitude
Rises 19:01:57 0° 357° (N) 2,656 6.6 -12.0°
Reaches altitude 10° 19:04:18 10° 9° (N) 1,763 5.5 -12.4°
Maximum altitude 19:07:45 30° 72° (ENE) 951 3.6 -12.9°
Enters shadow 19:09:21 22° 113° (ESE) 1,174 3.9 -13.2°
